CW5078 Weather Reports


Display with metric or nautical units.
time (UTC)temp
F
wind
direction
speed
MPH
gust
MPH
rain 1hr
in
rain 24hr
in
rain mn
in
humidity
%
barometer
mb
20180219041302 61 125 0.0 0.0 0.00 0.02 0.02 97 1014.9
20180219040801 61 125 0.0 1.0 0.00 0.02 0.02 97 1014.8
20180219040302 61 125 1.0 3.0 0.00 0.02 0.02 97 1014.8
20180219035802 61 168 0.0 0.0 0.00 0.02 0.02 97 1014.8
20180219034801 60 172 1.0 3.0 0.00 0.02 0.02 97 1014.8
20180219034301 60 138 0.0 3.0 0.00 0.02 0.02 97 1014.7
20180219032801 60 153 1.0 3.0 0.00 0.02 0.02 97 1014.7
20180219031801 59 146 1.0 5.0 0.00 0.02 0.02 97 1014.7
20180219031302 58 155 1.0 3.0 0.00 0.02 0.02 96 1014.7
20180219025802 58 155 0.0 2.0 0.00 0.02 0.02 96 1014.4
20180219025302 57 155 0.0 2.0 0.00 0.02 0.02 96 1014.4
20180219023802 57 156 1.0 2.0 0.00 0.02 0.02 95 1014.3
20180219022801 57 156 0.0 0.0 0.00 0.02 0.02 95 1014.2
20180219022302 57 156 0.0 0.0 0.00 0.02 0.02 95 1014.2
20180219021302 58 156 0.0 0.0 0.00 0.02 0.02 95 1014.3
20180219020802 58 156 0.0 0.0 0.00 0.02 0.02 95 1014.3
20180219020302 58 156 0.0 0.0 0.00 0.02 0.02 95 1014.3
20180219015802 58 156 0.0 0.0 0.00 0.02 0.02 95 1014.3
20180219015302 58 156 0.0 0.0 0.00 0.02 0.02 96 1014.3
20180219014302 58 156 0.0 2.0 0.00 0.02 0.02 96 1014.3
20180219013802 58 156 0.0 1.0 0.00 0.02 0.02 95 1014.3
20180219012302 58 156 1.0 2.0 0.00 0.02 0.02 95 1014.3
20180219011802 58 156 0.0 2.0 0.00 0.02 0.02 95 1014.4
20180219010802 58 156 1.0 2.0 0.00 0.02 0.02 95 1014.3
20180219010302 58 156 1.0 3.0 0.00 0.02 0.02 95 1014.3
20180219005802 58 158 2.0 3.0 0.00 0.02 0.02 95 1014.4
20180219004802 58 158 1.0 3.0 0.00 0.02 0.02 95 1014.4
20180219004302 58 158 2.0 2.0 0.00 0.02 0.02 95 1014.5
20180219003302 58 167 1.0 3.0 0.00 0.02 0.02 95 1014.7
20180219002802 58 133 2.0 3.0 0.00 0.02 0.02 95 1014.7
20180219002301 58 134 2.0 3.0 0.00 0.02 0.02 95 1014.8
20180219001801 58 134 1.0 3.0 0.00 0.02 0.02 95 1015.1
20180219001302 58 134 2.0 3.0 0.00 0.02 0.02 95 1015.2
20180218235802 59 151 1.0 3.0 0.00 0.02 0.02 94 1015.4
20180218234302 59 125 3.0 3.0 0.00 0.02 0.02 94 1015.6
20180218233802 59 124 2.0 3.0 0.00 0.02 0.02 94 1015.6
20180218232802 59 138 3.0 5.0 0.00 0.02 0.02 94 1015.8
20180218232302 59 118 3.0 6.0 0.00 0.02 0.02 94 1015.8
20180218231802 59 103 2.0 3.0 0.00 0.02 0.02 94 1015.8
20180218230802 59 103 1.0 3.0 0.00 0.02 0.02 93 1016.1
20180218230302 59 103 1.0 3.0 0.00 0.02 0.02 93 1016.1
20180218224302 59 103 0.0 0.0 0.00 0.02 0.02 93 1016.4
20180218222802 59 103 1.0 2.0 0.00 0.02 0.02 92 1016.5
20180218222302 59 103 0.0 1.0 0.00 0.02 0.02 92 1016.6
20180218221802 59 103 1.0 2.0 0.00 0.02 0.02 92 1016.6
20180218221302 59 102 1.0 3.0 0.00 0.02 0.02 92 1016.5
20180218215302 59 87 1.0 2.0 0.00 0.02 0.02 91 1016.6
20180218214302 59 93 1.0 2.0 0.00 0.02 0.02 91 1016.7
20180218213802 58 92 2.0 3.0 0.00 0.02 0.02 91 1016.7
20180218213302 58 113 2.0 3.0 0.00 0.02 0.02 92 1016.8
20180218212803 58 119 1.0 3.0 0.00 0.02 0.02 92 1016.9
20180218212302 58 126 1.0 2.0 0.00 0.02 0.02 92 1016.9
20180218211803 58 126 1.0 3.0 0.00 0.02 0.02 92 1016.9
20180218211302 58 150 1.0 3.0 0.00 0.02 0.02 92 1017.1
20180218210302 58 159 1.0 3.0 0.00 0.03 0.02 92 1017.1
20180218205304 57 148 1.0 3.0 0.00 0.03 0.02 92 1017.3
20180218204802 57 92 2.0 3.0 0.00 0.03 0.02 92 1017.2
20180218204304 57 131 2.0 3.0 0.00 0.03 0.02 92 1017.2
20180218203803 57 119 2.0 3.0 0.00 0.04 0.02 92 1017.3
20180218203303 57 137 2.0 3.0 0.00 0.04 0.02 92 1017.4
20180218202803 57 163 2.0 5.0 0.00 0.05 0.02 92 1017.5
20180218202303 57 156 2.0 3.0 0.00 0.05 0.02 92 1017.5
20180218201802 56 144 2.0 5.0 0.00 0.05 0.02 92 1017.6
20180218201302 56 173 2.0 5.0 0.00 0.05 0.02 92 1017.7
20180218200803 56 114 2.0 3.0 0.00 0.05 0.02 92 1017.7
20180218195803 56 166 3.0 5.0 0.00 0.06 0.02 92 1017.8
20180218195306 56 155 3.0 7.0 0.00 0.06 0.02 92 1017.9
20180218194803 56 110 2.0 3.0 0.00 0.06 0.02 92 1017.9
20180218194302 55 111 2.0 3.0 0.00 0.06 0.02 92 1018.0
20180218193803 55 158 3.0 6.0 0.00 0.06 0.02 92 1018.2
20180218193303 55 145 3.0 6.0 0.00 0.06 0.02 92 1018.3
20180218190803 55 126 0.0 3.0 0.00 0.07 0.02 93 1018.8
20180218190303 54 150 2.0 3.0 0.00 0.07 0.02 92 1018.8
20180218185802 54 110 2.0 5.0 0.00 0.08 0.02 92 1019.0
20180218185303 54 107 1.0 3.0 0.00 0.08 0.02 92 1019.0
20180218183803 54 184 2.0 7.0 0.00 0.08 0.02 93 1019.4
20180218181803 54 145 2.0 3.0 0.00 0.08 0.02 93 1019.7
20180218180803 53 149 2.0 5.0 0.00 0.08 0.02 93 1019.8
20180218180303 53 117 2.0 6.0 0.00 0.08 0.02 93 1019.8
20180218175803 53 158 3.0 7.0 0.00 0.08 0.02 93 1019.9
20180218175303 53 157 2.0 8.0 0.00 0.08 0.02 93 1020.1
20180218174303 53 98 2.0 3.0 0.00 0.08 0.02 93 1020.3
20180218173803 52 102 2.0 3.0 0.00 0.08 0.02 93 1020.3
20180218173303 52 147 3.0 5.0 0.00 0.08 0.02 94 1020.3
20180218172803 52 139 2.0 3.0 0.00 0.08 0.02 94 1020.4
20180218172303 52 88 1.0 6.0 0.00 0.08 0.02 94 1020.4
20180218171304 52 122 3.0 5.0 0.00 0.08 0.02 94 1020.5
20180218170303 52 112 2.0 3.0 0.00 0.08 0.02 94 1020.5
20180218164303 51 113 2.0 3.0 0.00 0.08 0.02 95 1020.8
20180218163304 51 101 2.0 6.0 0.00 0.08 0.02 95 1020.9
20180218162803 51 103 2.0 3.0 0.00 0.08 0.02 95 1021.0
20180218162303 50 141 2.0 3.0 0.00 0.08 0.02 95 1021.0
20180218161303 50 107 3.0 6.0 0.00 0.08 0.02 95 1021.0
20180218160803 50 128 2.0 3.0 0.00 0.08 0.02 95 1021.0
20180218155804 50 140 2.0 3.0 0.00 0.08 0.02 95 1021.2
20180218154827 50 115 2.0 3.0 0.00 0.08 0.02 95 1021.3
20180218152803 49 105 3.0 6.0 0.00 0.08 0.02 95 1021.3
20180218152303 49 108 3.0 9.0 0.00 0.08 0.02 96 1021.2
20180218151804 49 126 4.0 7.0 0.00 0.08 0.02 96 1021.2
20180218151303 49 124 3.0 6.0 0.00 0.08 0.02 96 1021.2
20180218150303 49 110 2.0 5.0 0.00 0.08 0.02 96 1021.0
20180218145803 49 122 3.0 6.0 0.00 0.08 0.02 96 1021.1
20180218145303 49 104 2.0 7.0 0.00 0.08 0.02 96 1021.0
20180218143305 49 96 3.0 6.0 0.00 0.08 0.02 96 1021.2
20180218142804 49 92 1.0 3.0 0.00 0.08 0.02 96 1021.2
20180218142303 49 100 2.0 3.0 0.00 0.08 0.02 96 1021.2
20180218141304 48 111 2.0 3.0 0.00 0.08 0.02 96 1021.1
20180218140303 48 117 2.0 3.0 0.01 0.08 0.02 95 1021.0
20180218135803 48 92 3.0 7.0 0.01 0.08 0.02 95 1020.9
20180218135303 48 88 1.0 3.0 0.01 0.08 0.02 95 1020.9
20180218133803 48 122 4.0 7.0 0.01 0.08 0.02 95 1020.8
20180218133303 48 98 3.0 5.0 0.01 0.08 0.02 95 1020.7
20180218132304 48 105 3.0 6.0 0.01 0.08 0.02 95 1020.8
20180218131803 48 113 2.0 5.0 0.01 0.08 0.02 95 1020.8
20180218131304 48 102 1.0 2.0 0.01 0.08 0.02 95 1020.8
20180218130304 48 121 2.0 3.0 0.00 0.07 0.01 95 1020.9
20180218125803 48 99 2.0 3.0 0.00 0.07 0.01 94 1020.9
20180218124804 48 122 2.0 3.0 0.00 0.07 0.01 94 1020.9
20180218124304 48 102 2.0 3.0 0.00 0.07 0.01 94 1020.9
20180218123804 48 90 2.0 3.0 0.00 0.07 0.01 94 1020.8
20180218123303 48 119 2.0 6.0 0.00 0.07 0.01 94 1020.9
20180218122805 49 94 2.0 3.0 0.01 0.07 0.01 94 1020.9
20180218122304 49 102 1.0 3.0 0.01 0.07 0.01 93 1021.0
20180218121304 49 78 1.0 2.0 0.01 0.07 0.01 93 1021.2
20180218120305 49 92 1.0 3.0 0.01 0.07 0.01 93 1021.1
20180218114805 49 92 2.0 3.0 0.01 0.07 0.01 92 1021.1
20180218114304 49 84 2.0 3.0 0.01 0.07 0.01 91 1021.1
20180218112804 49 118 2.0 3.0 0.00 0.06 0.00 91 1021.2
20180218112305 49 91 2.0 3.0 0.00 0.06 0.00 91 1021.0
20180218111304 49 98 3.0 6.0 0.00 0.06 0.00 90 1020.9
20180218105305 49 95 2.0 6.0 0.00 0.06 0.00 90 1020.9
20180218104304 49 95 2.0 6.0 0.00 0.06 0.00 90 1020.9
20180218103809 49 120 1.0 3.0 0.00 0.06 0.00 91 1020.7
20180218103304 49 71 1.0 3.0 0.00 0.06 0.00 91 1020.9
20180218102305 49 104 2.0 3.0 0.00 0.06 0.00 91 1020.8
20180218101804 49 74 1.0 3.0 0.00 0.06 0.00 91 1020.8
20180218101305 49 95 2.0 3.0 0.00 0.06 0.00 91 1020.7
20180218100804 49 114 2.0 3.0 0.00 0.06 0.00 91 1020.8
20180218095804 49 104 2.0 3.0 0.00 0.06 0.00 91 1021.1
20180218095306 49 101 2.0 3.0 0.00 0.06 0.00 91 1021.1
20180218094805 49 105 2.0 3.0 0.00 0.06 0.00 91 1021.1
20180218093805 49 62 1.0 3.0 0.00 0.06 0.00 91 1021.2
20180218091804 49 66 1.0 2.0 0.00 0.06 0.00 91 1021.1
20180218085248 49 115 1.0 3.0 0.00 0.06 0.00 91 1021.2
20180218084741 49 94 1.0 3.0 0.00 0.06 0.00 91 1021.1
20180218084242 49 65 3.0 7.0 0.00 0.06 0.00 91 1021.1
20180218083242 49 70 3.0 6.0 0.00 0.06 0.00 91 1021.0
20180218082742 49 85 1.0 6.0 0.00 0.06 0.00 91 1021.1
20180218082241 49 94 2.0 3.0 0.00 0.06 0.00 91 1021.1
20180218081742 50 89 3.0 6.0 0.00 0.06 0.00 91 1021.0
20180218081242 50 34 2.0 3.0 0.00 0.06 0.00 91 1021.2
20180218080741 50 110 2.0 3.0 0.00 0.06 0.00 91 1021.2
20180218080241 50 109 2.0 3.0 0.00 0.06 0.00 91 1021.3
20180218075741 50 98 2.0 3.0 0.00 0.06 0.00 91 1021.1
20180218075242 50 99 2.0 6.0 0.00 0.06 0.00 91 1020.9
20180218074741 50 121 2.0 7.0 0.00 0.06 0.00 91 1020.9
20180218074241 50 96 2.0 6.0 0.00 0.06 0.00 91 1020.9
20180218073741 50 95 2.0 6.0 0.00 0.06 0.00 91 1021.0
20180218073241 50 96 2.0 3.0 0.00 0.06 0.00 92 1021.1
20180218072747 50 141 1.0 3.0 0.00 0.06 0.00 92 1021.1
20180218072241 50 96 3.0 8.0 0.00 0.06 0.00 92 1021.1
20180218071742 50 96 2.0 6.0 0.00 0.06 0.00 92 1021.2
20180218071241 50 98 2.0 6.0 0.00 0.06 0.00 92 1021.3
20180218070741 50 104 3.0 7.0 0.00 0.06 0.00 92 1021.2
20180218064742 51 58 2.0 5.0 0.00 0.06 0.00 92 1021.0
20180218064241 51 95 1.0 3.0 0.00 0.06 0.00 92 1021.0
20180218063741 51 76 1.0 3.0 0.00 0.06 0.00 92 1021.2
20180218062242 51 93 2.0 3.0 0.00 0.06 0.00 92 1021.4
20180218061741 51 80 2.0 6.0 0.00 0.06 0.00 92 1021.4
20180218061242 51 69 1.0 2.0 0.00 0.06 0.00 92 1021.2
20180218060802 51 71 1.0 3.0 0.00 0.06 0.00 92 1021.2
20180218060242 51 58 1.0 7.0 0.00 0.06 0.00 92 1021.3
20180218055242 51 42 0.0 2.0 0.00 0.06 0.06 93 1021.3
20180218053742 51 34 1.0 3.0 0.00 0.06 0.06 92 1021.5
20180218053242 51 336 1.0 3.0 0.00 0.06 0.06 92 1021.4
20180218051742 51 69 1.0 3.0 0.00 0.06 0.06 92 1021.4
20180218051242 51 76 0.0 5.0 0.00 0.06 0.06 92 1021.4
20180218050742 51 47 1.0 3.0 0.00 0.06 0.06 92 1021.4
20180218050242 51 0 0.0 5.0 0.00 0.06 0.06 92 1021.3
20180218045743 52 69 2.0 5.0 0.00 0.06 0.06 92 1021.4
20180218045242 52 54 1.0 3.0 0.00 0.06 0.06 92 1021.4
20180218044242 52 338 1.0 2.0 0.00 0.06 0.06 92 1021.4
20180218043741 52 338 2.0 3.0 0.00 0.06 0.06 92 1021.6
20180218043241 52 5 1.0 3.0 0.00 0.06 0.06 92 1021.6
20180218042742 52 76 2.0 3.0 0.00 0.06 0.06 93 1021.7
20180218041742 52 39 1.0 3.0 0.00 0.06 0.06 93 1021.6